Time,TemperatureF,DewpointF,PressureIn,WindDirection,WindDirectionDegrees,WindSpeedMPH,WindSpeedGustMPH,Humidity,HourlyPrecipIn,Conditions,Clouds,dailyrainin,SoftwareType,DateUTC
2013-07-14 00:12:00,73.2,68.1,29.97,SE,135,1.7,-999.0,84,-99.99,,,0.00,Acu-Link.com,2013-07-14 04:12:00,
2013-07-14 00:28:00,73.4,67.9,29.97,NE,45,3.7,-999.0,83,-99.99,,,0.00,Acu-Link.com,2013-07-14 04:28:00,
2013-07-14 00:43:00,73.6,67.8,29.97,NNE,22,2.2,-999.0,82,-99.99,,,0.00,Acu-Link.com,2013-07-14 04:43:00,
2013-07-14 00:58:00,73.4,67.9,29.97,NNE,22,2.2,-999.0,83,-99.99,,,0.00,Acu-Link.com,2013-07-14 04:58:00,
2013-07-14 01:13:00,73.2,67.7,29.97,North,0,1.1,-999.0,83,-99.99,,,0.00,Acu-Link.com,2013-07-14 05:13:00,
2013-07-14 01:28:00,72.7,67.6,29.97,East,90,4.7,-999.0,84,-99.99,,,0.00,Acu-Link.com,2013-07-14 05:28:00,
2013-07-14 01:44:00,72.3,67.5,29.97,NNW,337,2.2,-999.0,85,-99.99,,,0.00,Acu-Link.com,2013-07-14 05:44:00,
2013-07-14 01:59:00,72.1,67.7,29.96,SSE,157,0.0,-999.0,86,-99.99,,,0.00,Acu-Link.com,2013-07-14 05:59:00,
2013-07-14 02:14:00,72.0,67.6,29.97,SSE,157,2.2,-999.0,86,-99.99,,,0.00,Acu-Link.com,2013-07-14 06:14:00,
2013-07-14 02:29:00,71.8,67.4,29.96,ESE,112,2.2,-999.0,86,-99.99,,,0.00,Acu-Link.com,2013-07-14 06:29:00,
2013-07-14 02:44:00,71.8,67.4,29.97,NNE,22,2.2,-999.0,86,-99.99,,,0.00,Acu-Link.com,2013-07-14 06:44:00,
2013-07-14 03:00:00,71.4,67.3,29.97,NE,45,2.7,-999.0,87,-99.99,,,0.00,Acu-Link.com,2013-07-14 07:00:00,
2013-07-14 03:15:00,71.2,67.1,29.97,East,90,2.2,-999.0,87,-99.99,,,0.00,Acu-Link.com,2013-07-14 07:15:00,
2013-07-14 03:30:00,71.1,67.4,29.97,NNW,337,0.0,-999.0,88,-99.99,,,0.00,Acu-Link.com,2013-07-14 07:30:00,
2013-07-14 03:45:00,70.9,67.2,29.98,NNE,22,2.2,-999.0,88,-99.99,,,0.00,Acu-Link.com,2013-07-14 07:45:00,
2013-07-14 04:01:00,70.5,67.1,29.98,East,90,2.2,-999.0,89,-99.99,,,0.00,Acu-Link.com,2013-07-14 08:01:00,
2013-07-14 04:16:00,70.5,67.1,29.98,East,90,2.2,-999.0,89,-99.99,,,0.00,Acu-Link.com,2013-07-14 08:16:00,
2013-07-14 04:32:00,70.5,67.1,29.98,East,90,1.1,-999.0,89,-99.99,,,0.00,Acu-Link.com,2013-07-14 08:32:00,
2013-07-14 04:47:00,70.0,66.9,29.98,SSE,157,1.1,-999.0,90,-99.99,,,0.00,Acu-Link.com,2013-07-14 08:47:00,
2013-07-14 05:02:00,69.4,66.7,29.98,ESE,112,0.0,-999.0,91,-99.99,,,0.00,Acu-Link.com,2013-07-14 09:02:00,
2013-07-14 05:17:00,69.1,66.7,29.98,NNE,22,0.0,-999.0,92,-99.99,,,0.00,Acu-Link.com,2013-07-14 09:17:00,
2013-07-14 05:32:00,68.5,66.1,29.98,NNW,337,0.0,-999.0,92,-99.99,,,0.00,Acu-Link.com,2013-07-14 09:32:00,
2013-07-14 05:47:00,68.5,66.4,29.99,NNE,22,0.0,-999.0,93,-99.99,,,0.00,Acu-Link.com,2013-07-14 09:47:00,
2013-07-14 06:03:00,68.4,66.3,29.99,NNE,22,1.7,-999.0,93,-99.99,,,0.00,Acu-Link.com,2013-07-14 10:03:00,
2013-07-14 06:18:00,68.2,66.1,30.00,ENE,67,0.0,-999.0,93,-99.99,,,0.00,Acu-Link.com,2013-07-14 10:18:00,
2013-07-14 06:33:00,68.2,66.4,30.01,ESE,112,0.0,-999.0,94,-99.99,,,0.00,Acu-Link.com,2013-07-14 10:33:00,
2013-07-14 06:48:00,68.9,66.5,30.01,NE,45,2.7,-999.0,92,-99.99,,,0.00,Acu-Link.com,2013-07-14 10:48:00,
2013-07-14 07:03:00,69.1,66.7,30.01,WNW,292,1.1,-999.0,92,-99.99,,,0.00,Acu-Link.com,2013-07-14 11:03:00,
2013-07-14 07:19:00,69.6,66.9,30.02,ESE,112,0.0,-999.0,91,-99.99,,,0.00,Acu-Link.com,2013-07-14 11:19:00,
2013-07-14 07:34:00,70.5,67.4,30.02,South,180,0.0,-999.0,90,-99.99,,,0.00,Acu-Link.com,2013-07-14 11:34:00,
2013-07-14 07:49:00,71.6,67.5,30.03,ESE,112,1.7,-999.0,87,-99.99,,,0.00,Acu-Link.com,2013-07-14 11:49:00,
2013-07-14 08:04:00,75.4,68.8,30.03,South,180,4.2,-999.0,80,-99.99,,,0.00,Acu-Link.com,2013-07-14 12:04:00,
2013-07-14 08:19:00,77.2,69.0,30.03,ESE,112,1.7,-999.0,76,-99.99,,,0.00,Acu-Link.com,2013-07-14 12:19:00,
2013-07-14 08:35:00,77.7,69.1,30.04,North,0,0.0,-999.0,75,-99.99,,,0.00,Acu-Link.com,2013-07-14 12:35:00,
2013-07-14 08:50:00,79.9,70.0,30.05,SSE,157,2.2,-999.0,72,-99.99,,,0.00,Acu-Link.com,2013-07-14 12:50:00,
2013-07-14 09:05:00,80.8,70.5,30.05,ESE,112,2.7,-999.0,71,-99.99,,,0.00,Acu-Link.com,2013-07-14 13:05:00,
2013-07-14 09:20:00,80.6,69.9,30.05,SSE,157,3.2,-999.0,70,-99.99,,,0.00,Acu-Link.com,2013-07-14 13:20:00,
2013-07-14 09:35:00,81.3,70.6,30.04,ESE,112,3.2,-999.0,70,-99.99,,,0.00,Acu-Link.com,2013-07-14 13:35:00,
2013-07-14 09:51:00,83.7,71.1,30.05,NNE,22,3.7,-999.0,66,-99.99,,,0.00,Acu-Link.com,2013-07-14 13:51:00,
2013-07-14 10:06:00,81.0,70.7,30.05,SSE,157,2.7,-999.0,71,-99.99,,,0.00,Acu-Link.com,2013-07-14 14:06:00,
2013-07-14 10:21:00,82.9,71.7,30.04,South,180,3.7,-999.0,69,-99.99,,,0.00,Acu-Link.com,2013-07-14 14:21:00,
2013-07-14 10:36:00,83.7,71.6,30.04,ESE,112,2.2,-999.0,67,-99.99,,,0.00,Acu-Link.com,2013-07-14 14:36:00,
2013-07-14 10:51:00,84.4,72.2,30.04,SSE,157,3.2,-999.0,67,-99.99,,,0.00,Acu-Link.com,2013-07-14 14:51:00,
2013-07-14 11:07:00,83.3,71.6,30.04,SE,135,2.2,-999.0,68,-99.99,,,0.00,Acu-Link.com,2013-07-14 15:07:00,
2013-07-14 11:22:00,85.8,72.6,30.05,SSE,157,3.2,-999.0,65,-99.99,,,0.00,Acu-Link.com,2013-07-14 15:22:00,
2013-07-14 11:37:00,85.1,72.9,30.05,NNE,22,2.2,-999.0,67,-99.99,,,0.00,Acu-Link.com,2013-07-14 15:37:00,
2013-07-14 11:52:00,87.6,73.4,30.05,West,270,3.7,-999.0,63,-99.99,,,0.00,Acu-Link.com,2013-07-14 15:52:00,
2013-07-14 12:08:00,88.9,73.2,30.05,SE,135,5.8,-999.0,60,-99.99,,,0.00,Acu-Link.com,2013-07-14 16:08:00,
2013-07-14 12:23:00,88.5,73.8,30.04,NNE,22,1.7,-999.0,62,-99.99,,,0.00,Acu-Link.com,2013-07-14 16:23:00,
2013-07-14 12:38:00,91.9,74.4,30.04,NNW,337,4.2,-999.0,57,-99.99,,,0.00,Acu-Link.com,2013-07-14 16:38:00,
2013-07-14 12:53:00,90.0,74.2,30.04,WSW,247,5.3,-999.0,60,-99.99,,,0.00,Acu-Link.com,2013-07-14 16:53:00,
2013-07-14 13:08:00,88.7,73.0,30.04,ESE,112,4.2,-999.0,60,-99.99,,,0.00,Acu-Link.com,2013-07-14 17:08:00,
2013-07-14 13:24:00,89.8,73.0,30.04,ESE,112,4.7,-999.0,58,-99.99,,,0.00,Acu-Link.com,2013-07-14 17:24:00,
2013-07-14 13:39:00,91.0,73.6,30.04,ESE,112,3.2,-999.0,57,-99.99,,,0.00,Acu-Link.com,2013-07-14 17:39:00,
2013-07-14 13:54:00,92.7,74.7,30.04,South,180,3.7,-999.0,56,-99.99,,,0.00,Acu-Link.com,2013-07-14 17:54:00,
2013-07-14 14:09:00,89.6,72.8,30.04,ESE,112,4.2,-999.0,58,-99.99,,,0.00,Acu-Link.com,2013-07-14 18:09:00,
2013-07-14 14:24:00,91.6,73.1,30.04,West,270,4.7,-999.0,55,-99.99,,,0.00,Acu-Link.com,2013-07-14 18:24:00,
2013-07-14 14:40:00,92.1,73.6,30.03,ESE,112,5.8,-999.0,55,-99.99,,,0.00,Acu-Link.com,2013-07-14 18:40:00,
2013-07-14 14:55:00,89.1,72.4,30.04,North,0,3.2,-999.0,58,-99.99,,,0.00,Acu-Link.com,2013-07-14 18:55:00,
2013-07-14 15:10:00,91.9,73.4,30.03,North,0,3.7,-999.0,55,-99.99,,,0.00,Acu-Link.com,2013-07-14 19:10:00,
2013-07-14 15:25:00,93.9,74.1,30.03,SSE,157,5.3,-999.0,53,-99.99,,,0.00,Acu-Link.com,2013-07-14 19:25:00,
2013-07-14 15:40:00,90.5,72.6,30.03,East,90,3.7,-999.0,56,-99.99,,,0.00,Acu-Link.com,2013-07-14 19:40:00,
2013-07-14 15:56:00,93.0,74.9,30.02,SW,225,2.2,-999.0,56,-99.99,,,0.00,Acu-Link.com,2013-07-14 19:56:00,
2013-07-14 16:11:00,92.7,73.6,30.02,SE,135,4.7,-999.0,54,-99.99,,,0.00,Acu-Link.com,2013-07-14 20:11:00,
2013-07-14 16:26:00,92.1,74.1,30.01,WSW,247,7.3,-999.0,56,-99.99,,,0.00,Acu-Link.com,2013-07-14 20:26:00,
2013-07-14 16:41:00,90.5,73.7,30.01,ESE,112,4.7,-999.0,58,-99.99,,,0.00,Acu-Link.com,2013-07-14 20:41:00,
2013-07-14 16:57:00,92.8,74.2,30.01,East,90,3.2,-999.0,55,-99.99,,,0.00,Acu-Link.com,2013-07-14 20:57:00,
2013-07-14 17:12:00,86.4,75.9,30.02,West,270,3.2,-999.0,71,-99.99,,,0.01,Acu-Link.com,2013-07-14 21:12:00,
2013-07-14 17:27:00,86.2,76.1,30.02,SE,135,1.7,-999.0,72,-99.99,,,0.01,Acu-Link.com,2013-07-14 21:27:00,
2013-07-14 17:42:00,84.9,74.0,30.02,SE,135,2.7,-999.0,70,-99.99,,,0.01,Acu-Link.com,2013-07-14 21:42:00,
2013-07-14 17:57:00,83.5,74.7,30.02,WSW,247,3.7,-999.0,75,-99.99,,,0.01,Acu-Link.com,2013-07-14 21:57:00,
2013-07-14 18:13:00,84.2,75.0,30.02,ESE,112,4.2,-999.0,74,-99.99,,,0.01,Acu-Link.com,2013-07-14 22:13:00,
2013-07-14 18:28:00,84.0,74.8,30.02,ESE,112,3.2,-999.0,74,-99.99,,,0.01,Acu-Link.com,2013-07-14 22:28:00,
2013-07-14 18:43:00,85.6,75.5,30.02,ESE,112,3.2,-999.0,72,-99.99,,,0.01,Acu-Link.com,2013-07-14 22:43:00,
2013-07-14 18:58:00,85.6,75.1,30.02,NW,315,2.7,-999.0,71,-99.99,,,0.01,Acu-Link.com,2013-07-14 22:58:00,
2013-07-14 19:13:00,84.6,73.3,30.02,NE,45,3.7,-999.0,69,-99.99,,,0.01,Acu-Link.com,2013-07-14 23:13:00,
2013-07-14 19:29:00,84.0,72.3,30.02,NE,45,1.7,-999.0,68,-99.99,,,0.01,Acu-Link.com,2013-07-14 23:29:00,
2013-07-14 19:44:00,84.0,72.3,30.03,SSE,157,1.7,-999.0,68,-99.99,,,0.01,Acu-Link.com,2013-07-14 23:44:00,
2013-07-14 19:59:00,83.8,72.1,30.04,SE,135,2.7,-999.0,68,-99.99,,,0.01,Acu-Link.com,2013-07-14 23:59:00,
2013-07-14 20:14:00,83.3,72.0,30.05,SSE,157,3.2,-999.0,69,-99.99,,,0.01,Acu-Link.com,2013-07-15 00:14:00,
2013-07-14 20:29:00,82.9,72.9,30.04,ESE,112,2.7,-999.0,72,-99.99,,,0.01,Acu-Link.com,2013-07-15 00:29:00,
2013-07-14 20:45:00,82.4,72.9,30.05,SSE,157,2.2,-999.0,73,-99.99,,,0.01,Acu-Link.com,2013-07-15 00:45:00,
2013-07-14 21:00:00,82.0,73.3,30.06,West,270,2.2,-999.0,75,-99.99,,,0.01,Acu-Link.com,2013-07-15 01:00:00,
2013-07-14 21:15:00,81.7,73.8,30.06,ESE,112,1.1,-999.0,77,-99.99,,,0.01,Acu-Link.com,2013-07-15 01:15:00,
2013-07-14 21:30:00,81.3,73.4,30.06,South,180,1.7,-999.0,77,-99.99,,,0.01,Acu-Link.com,2013-07-15 01:30:00,
2013-07-14 21:46:00,81.0,73.5,30.07,SSE,157,2.7,-999.0,78,-99.99,,,0.01,Acu-Link.com,2013-07-15 01:46:00,
2013-07-14 22:01:00,80.4,72.9,30.08,WNW,292,1.7,-999.0,78,-99.99,,,0.01,Acu-Link.com,2013-07-15 02:01:00,
2013-07-14 22:16:00,79.9,72.8,30.08,NW,315,2.7,-999.0,79,-99.99,,,0.01,Acu-Link.com,2013-07-15 02:16:00,
2013-07-14 22:31:00,79.5,72.4,30.09,ESE,112,1.7,-999.0,79,-99.99,,,0.01,Acu-Link.com,2013-07-15 02:31:00,
2013-07-14 22:46:00,79.2,72.5,30.09,South,180,0.0,-999.0,80,-99.99,,,0.01,Acu-Link.com,2013-07-15 02:46:00,
2013-07-14 23:02:00,79.0,72.7,30.09,SSE,157,2.2,-999.0,81,-99.99,,,0.01,Acu-Link.com,2013-07-15 03:02:00,
2013-07-14 23:17:00,78.8,72.5,30.10,South,180,2.7,-999.0,81,-99.99,,,0.01,Acu-Link.com,2013-07-15 03:17:00,
2013-07-14 23:32:00,78.3,72.3,30.10,WSW,247,0.0,-999.0,82,-99.99,,,0.01,Acu-Link.com,2013-07-15 03:32:00,
2013-07-14 23:47:00,77.7,72.5,30.10,SSE,157,0.0,-999.0,84,-99.99,,,0.01,Acu-Link.com,2013-07-15 03:47:00,